FW4161 Weather Reports


time (UTC)temp
F
wind
direction
speed
knots
gust
knots
rain 1hr
in
rain 24hr
in
rain mn
in
humidity
%
barometer
mb
20260505093016 51 0.0 0.0 0.00 0.00 0.00 84 1011.8
20260505090015 52 0.0 0.0 0.00 0.00 0.00 84 1011.0
20260505083036 51 0.0 0.0 0.00 0.00 0.00 82 1010.9
20260505080018 52 0.0 0.0 0.00 0.00 0.00 78 1010.9
20260505073017 52 0.0 0.0 0.00 0.00 0.00 77 1011.0
20260505070017 53 0.0 0.0 0.00 0.00 0.00 75 1010.8
20260505063017 56 0.0 1.7 0.00 0.00 0.00 72 1010.9
20260505060017 57 0.0 1.7 0.00 0.00 0.00 69 1010.9
20260505053017 58 0.0 1.7 0.00 0.00 0.00 68 1011.0
20260505040017 59 0.0 1.7 0.00 0.00 0.00 61 1011.2
20260505033015 61 203 0.9 3.5 0.00 0.00 0.00 55 1011.1
20260505030036 63 203 1.7 3.5 0.00 0.00 0.00 51 1011.3
20260505023016 63 203 0.9 3.5 0.00 0.00 0.00 49 1011.3
20260505020015 63 248 0.9 2.6 0.00 0.00 0.00 50 1011.6
20260505013017 63 0.0 0.0 0.00 0.00 0.00 49 1011.2
20260505010017 64 0.0 0.0 0.00 0.00 0.00 46 1010.9
20260505003017 65 0.0 0.0 0.00 0.00 0.00 45 1010.5
20260505000017 67 248 0.9 3.5 0.00 0.00 0.00 43 1010.2
20260504233017 69 248 1.7 7.0 0.00 0.00 0.00 41 1009.9
20260504230017 70 225 1.7 5.2 0.00 0.00 0.00 39 1009.8
20260504223017 72 248 1.7 6.1 0.00 0.00 0.00 37 1009.8
20260504220017 73 248 2.6 10.4 0.00 0.00 0.00 36 1009.7
20260504213017 74 248 2.6 10.4 0.00 0.00 0.00 34 1010.0
20260504210017 73 270 2.6 9.6 0.00 0.00 0.00 36 1010.1
20260504203017 72 248 2.6 8.7 0.00 0.00 0.00 35 1010.0
20260504200016 73 270 2.6 9.6 0.00 0.00 0.00 34 1010.2
20260504193017 73 248 3.5 10.4 0.00 0.00 0.00 33 1010.7
20260504190016 73 270 4.3 11.3 0.00 0.00 0.00 34 1010.9
20260504183016 73 270 3.5 11.3 0.00 0.00 0.00 35 1011.5
20260504180017 71 248 3.5 14.8 0.00 0.00 0.00 35 1011.9
20260504173016 69 248 4.3 11.3 0.00 0.00 0.00 38 1012.2